Wind_Speed
12 11 11 10 10 11 11 11 11 10 10 10 9 10 10 10 10 9 9 9 9 9 8 8 8 8 8 8 9 9 9 10 10 11 12 8 7 11 11 9 8 8 8 8 8 8 11 12 12 11 11 11 10 9 6 6 8 2 5 1 3 2 4 4 5 5 6 11 11 11 11 11 11 9 12 12 12 15 14 14 17 20 24 26 28 30 29 27
11 11 11 11 11 11 12 12 12 12 11 10 9 9 9 9 9 9 9 9 9 9 8 8 8 8 8 8 9 9 9 10 11 14 12 7 9 11 9 9 9 8 8 9 10 10 12 11 10 10 10 10 8 8 4 5 4 2 2 1 2 2 6 6 5 6 9 14 13 12 12 11 13 14 13 11 13 14 13 16 22 26 28 29 30 29 27 27
10 11 11 11 12 12 13 13 13 13 13 11 10 10 9 9 8 9 8 8 8 8 8 7 7 8 8 8 9 9 9 11 13 14 10 7 10 11 9 9 8 8 8 8 10 11 11 10 9 8 10 9 7 6 3 3 4 1 2 1 1 6 7 8 7 6 12 17 15 14 14 13 14 15 13 13 15 13 13 18 24 28 29 30 29 27 28 26
10 10 11 12 12 14 14 14 14 14 13 13 12 10 9 8 8 8 8 8 8 7 8 7 7 7 7 8 8 8 11 12 8 5 4 5 7 10 10 8 8 8 8 9 10 11 11 11 10 8 10 9 6 7 2 1 2 1 3 1 4 9 7 8 8 7 14 18 16 16 15 14 14 14 14 15 13 9 14 20 23 28 30 30 29 27 26 26
9 9 10 11 13 15 16 15 15 14 14 14 13 12 10 8 7 7 8 8 7 7 8 7 7 7 7 7 7 8 9 6 1 2 4 5 7 9 9 7 8 8 8 11 10 12 12 12 12 10 10 7 3 6 2 2 1 2 1 3 5 7 6 6 8 9 14 14 14 15 13 14 14 13 15 14 10 8 15 22 24 28 30 30 29 27 26 25
9 9 9 10 12 14 16 16 16 15 15 14 13 12 10 8 6 6 7 7 7 7 7 7 7 6 6 6 6 7 6 3 3 2 8 9 10 8 7 8 9 10 11 11 11 12 12 11 12 10 9 5 1 2 4 2 0 2 4 8 5 5 8 8 8 10 12 12 12 13 14 15 14 13 14 12 10 12 16 22 26 27 29 29 27 26 25 25
9 8 9 10 12 14 15 16 17 17 17 15 13 12 11 8 5 4 6 6 6 6 7 6 6 6 5 5 7 6 10 9 2 4 8 9 8 7 7 9 11 12 14 12 13 12 11 11 12 10 9 5 0 4 7 4 3 1 4 10 5 4 9 12 9 9 8 9 12 14 16 15 13 13 13 13 13 15 19 23 26 26 27 27 26 25 24 23
8 8 9 11 12 14 15 16 17 18 17 16 14 12 10 7 3 2 3 5 5 6 6 6 6 5 5 5 6 8 13 9 3 7 10 11 6 6 9 11 12 13 14 13 13 11 12 11 12 11 6 4 4 8 7 7 4 3 5 10 7 5 15 18 12 10 7 6 12 15 14 13 14 13 13 14 16 17 21 25 26 26 26 25 25 25 23 22
8 8 9 11 12 14 16 16 17 18 17 16 14 11 8 5 2 2 2 3 5 6 6 6 6 5 5 5 6 9 6 0 5 12 12 10 6 7 10 11 12 13 13 13 12 12 12 10 12 10 3 3 7 11 7 6 4 6 8 12 9 10 18 17 13 9 5 3 10 15 11 11 14 13 13 14 17 19 22 25 26 25 24 24 24 23 22 21
7 8 9 11 12 14 15 16 17 16 16 14 12 10 7 4 4 3 3 3 4 6 6 6 6 5 6 5 7 7 1 2 5 8 10 9 6 7 10 10 10 12 12 11 12 13 13 11 10 7 4 5 9 12 7 2 10 10 10 14 12 11 11 10 11 7 6 7 7 12 10 9 8 6 9 13 18 21 23 26 25 24 23 23 23 22 21 21
6 7 9 11 12 13 14 15 15 15 14 12 10 9 7 6 5 5 4 3 4 5 6 6 6 7 5 6 10 6 1 1 2 3 8 6 4 7 10 10 10 12 12 11 12 13 13 13 10 8 5 5 10 11 1 14 18 14 13 16 12 10 9 7 8 5 5 6 4 12 11 6 3 4 10 14 19 22 23 25 24 23 22 23 23 21 20 20
6 7 8 10 12 13 13 13 13 13 11 10 9 9 7 7 6 5 4 3 4 4 6 6 5 7 6 9 14 8 2 3 2 2 4 3 4 6 9 9 11 12 11 11 11 12 13 12 11 11 6 5 11 7 14 26 19 11 12 12 9 9 8 5 3 4 3 3 4 11 10 4 3 8 13 15 18 21 22 23 23 22 22 22 22 21 19 19
6 6 8 10 11 12 12 12 12 10 9 9 9 9 8 7 6 5 5 5 4 5 5 5 6 6 7 10 8 5 3 3 3 4 5 6 6 7 8 9 10 12 11 11 10 10 13 11 10 12 10 9 8 3 18 29 19 7 6 8 7 6 3 0 1 1 3 3 2 2 4 5 6 11 14 14 18 21 21 21 22 21 21 21 21 20 19 19
6 6 8 10 11 11 11 11 10 9 8 9 9 8 7 7 5 6 6 6 5 5 5 4 6 5 7 9 3 3 5 4 4 6 6 7 8 8 9 9 10 11 11 12 10 9 11 9 10 12 12 13 9 7 7 18 14 7 5 6 5 3 2 3 3 3 3 3 1 2 2 5 6 12 14 14 18 20 20 21 21 21 21 21 20 20 19 19
7 7 8 10 10 9 9 10 9 7 8 9 9 8 7 5 4 4 5 6 6 6 5 4 4 3 8 10 4 4 6 7 7 8 7 8 9 9 10 10 10 10 9 10 9 8 9 8 10 12 10 11 10 9 6 8 7 6 6 4 4 4 3 3 3 4 3 3 2 1 3 6 7 12 15 15 17 19 20 21 20 21 21 20 20 19 20 19
7 7 9 10 9 8 8 9 7 7 9 9 10 9 7 5 3 3 4 5 7 6 4 3 5 6 8 6 1 2 4 9 8 8 8 8 9 8 9 9 9 8 7 8 7 6 6 8 11 13 12 9 8 7 7 5 6 5 4 3 4 6 5 2 3 6 5 3 3 1 1 5 8 13 16 15 16 18 18 19 20 20 20 20 19 19 20 19
7 7 9 9 8 6 7 8 7 8 9 10 11 10 9 7 3 3 3 5 7 6 6 4 4 8 10 7 5 5 7 9 8 8 8 8 8 8 9 10 10 8 7 7 7 6 7 10 10 10 10 8 7 6 7 6 5 3 1 1 3 6 7 5 3 6 8 7 5 3 2 2 7 14 17 16 17 17 17 19 20 20 20 20 19 19 19 18
7 7 8 8 6 5 6 6 7 8 9 11 12 12 13 9 4 4 4 6 6 6 7 4 4 7 8 7 7 8 8 7 8 8 8 7 6 7 9 10 9 8 8 9 9 9 10 10 9 8 7 7 7 7 7 3 6 4 3 2 2 5 7 7 5 8 11 10 7 6 3 4 8 13 16 17 17 16 16 18 19 19 19 19 19 19 19 18
7 7 8 7 5 4 5 6 6 8 11 12 13 15 14 9 5 5 4 4 5 5 3 5 8 4 0 4 3 5 6 7 7 7 8 7 6 8 10 9 9 10 10 7 8 11 10 8 9 7 7 8 8 9 9 4 12 7 5 7 3 4 5 6 7 11 13 10 9 8 5 7 11 12 14 16 17 15 14 16 17 19 19 18 18 19 19 18
7 8 8 7 5 4 4 6 7 9 11 12 15 16 13 7 3 4 3 6 10 8 3 5 8 5 1 4 5 5 5 6 7 7 7 8 7 9 11 9 9 11 10 7 7 10 10 7 8 9 9 10 11 11 13 9 10 10 5 8 4 3 3 3 5 10 11 7 7 8 6 8 11 11 13 15 15 14 13 15 17 18 19 18 18 18 19 18
7 8 7 6 5 4 4 6 7 9 10 11 14 15 11 9 6 3 5 8 11 6 6 6 8 9 4 2 4 2 5 7 9 8 7 8 9 10 11 11 9 8 9 11 8 8 10 8 8 12 12 13 12 8 12 14 4 10 7 6 3 2 3 5 5 7 7 2 3 6 6 7 9 9 12 14 14 13 11 13 17 19 19 18 18 18 19 18
7 7 6 5 5 5 5 6 7 8 9 8 11 14 12 10 9 8 12 9 6 1 5 6 7 6 4 3 2 4 8 9 9 9 8 10 11 9 10 10 9 7 9 12 8 7 8 8 11 14 13 13 12 6 12 16 6 4 5 5 3 3 5 6 7 6 3 1 2 7 8 6 7 7 7 8 10 11 10 11 13 18 21 18 18 19 18 18
7 7 6 5 5 5 6 6 8 7 6 7 9 12 12 9 8 8 11 11 4 1 4 6 6 7 8 9 6 8 12 8 9 11 10 10 12 11 10 9 9 8 9 11 8 6 7 8 13 15 13 13 11 7 13 13 6 7 5 4 5 7 6 5 8 7 3 1 1 6 6 4 4 3 1 5 5 4 7 9 13 14 20 19 18 19 18 19
7 7 5 5 5 6 7 7 8 7 7 9 9 9 10 9 9 10 11 14 5 2 2 4 6 7 7 6 6 12 14 8 7 11 12 11 12 10 8 8 10 9 9 11 12 10 7 8 12 15 14 13 9 6 9 7 4 8 10 6 8 12 9 6 11 9 3 3 1 4 2 2 4 4 2 4 4 4 2 8 11 13 18 19 17 19 18 19
6 6 5 5 6 7 8 8 9 11 12 13 8 5 8 8 8 9 11 11 3 3 3 5 5 4 2 3 5 10 12 8 8 10 12 14 12 8 7 8 8 8 10 12 13 10 8 10 13 14 15 12 8 7 7 5 5 8 12 10 12 15 10 14 15 9 4 1 2 5 2 2 6 8 7 3 2 3 3 5 9 13 17 20 18 19 19 20
5 6 5 5 6 7 10 9 7 12 12 8 5 6 7 7 7 9 10 7 3 4 5 6 2 1 2 6 8 9 11 7 7 9 10 13 13 9 7 7 7 9 11 10 8 6 9 12 10 12 14 11 7 8 10 8 8 6 6 7 7 13 16 21 18 8 4 2 5 7 4 0 4 8 8 6 4 4 4 7 11 14 18 21 19 20 20 20
5 5 5 6 6 7 10 9 7 12 11 7 7 8 7 7 9 9 8 4 3 1 4 4 1 2 1 7 11 9 3 4 6 7 9 11 11 11 8 7 8 9 8 6 5 4 10 13 9 11 12 10 8 8 10 10 9 3 5 10 5 6 14 20 17 8 5 5 6 10 7 1 3 7 9 9 7 6 7 9 12 14 18 21 20 20 21 20
5 5 5 5 6 7 10 11 10 12 12 11 10 9 7 9 10 7 6 1 4 1 1 4 1 1 2 7 12 8 4 4 6 6 9 11 11 11 10 7 7 8 8 6 5 7 12 13 10 11 8 6 7 8 10 12 10 2 5 7 4 3 8 13 12 8 8 6 5 10 9 2 2 6 9 11 10 10 11 12 13 14 17 19 21 21 21 21
5 5 5 5 7 9 11 13 11 10 9 10 11 9 8 9 9 6 6 2 2 2 0 3 2 5 6 7 9 7 4 9 7 5 8 10 12 12 9 8 9 10 10 7 8 8 6 6 3 5 5 4 6 8 11 14 10 0 6 5 4 5 8 9 8 5 9 6 5 10 12 4 2 6 9 10 12 13 12 11 13 15 17 19 21 22 22 22
5 5 5 6 7 9 12 12 10 10 8 11 13 11 10 9 7 7 3 2 1 2 3 2 1 5 9 9 8 7 7 7 3 6 8 8 12 13 10 10 11 11 7 8 13 5 2 4 4 4 7 7 8 9 12 14 8 1 1 3 5 6 5 4 6 3 5 5 2 8 11 5 2 6 9 9 11 13 12 10 11 15 19 20 20 21 21 22
5 5 6 7 8 9 13 12 9 11 9 13 14 11 10 6 6 5 4 3 1 2 5 5 4 5 9 8 5 6 7 6 5 8 7 4 10 10 9 9 7 7 5 6 12 8 7 8 7 3 9 9 10 10 11 12 8 4 4 4 5 6 4 5 6 3 5 5 3 8 8 4 5 4 7 9 9 12 15 12 11 16 19 20 20 22 22 23
5 6 6 8 8 8 12 11 9 11 12 13 12 9 8 4 5 2 5 2 4 2 1 4 4 6 9 5 4 5 7 4 4 8 7 6 7 7 8 7 4 5 5 5 8 8 9 6 4 4 10 11 11 8 8 10 6 4 5 4 6 6 4 5 5 3 5 2 5 7 8 3 5 3 4 10 10 12 16 16 16 19 21 22 23 24 23 23
5 6 6 8 10 9 11 11 10 14 13 11 10 9 7 4 3 4 4 1 2 4 2 2 2 6 5 6 5 5 5 3 3 7 8 8 7 7 10 10 7 6 4 6 8 7 6 6 8 9 8 11 12 7 7 9 8 6 6 6 6 5 4 5 4 4 6 1 6 7 7 3 3 4 5 7 10 13 19 23 23 22 21 23 24 24 23 23
5 6 6 8 10 9 10 10 11 14 13 11 11 8 7 4 3 5 5 7 4 1 0 1 2 2 1 3 3 4 4 3 4 7 6 7 6 7 9 10 9 6 6 6 7 8 7 7 10 11 7 11 13 11 10 6 6 9 9 8 8 5 4 4 3 4 6 1 7 8 5 1 0 1 2 6 11 13 18 23 26 24 22 22 22 23 22 23
5 5 6 7 8 8 10 12 11 11 11 10 10 6 5 3 5 6 5 5 5 1 5 1 5 4 3 2 2 1 3 1 5 7 5 5 5 4 5 7 8 7 8 5 2 7 10 7 9 14 10 12 13 14 12 8 5 5 8 9 8 7 6 4 2 4 6 3 3 5 2 1 1 3 1 8 9 12 16 19 24 25 25 24 23 23 23 22
5 7 7 6 6 6 8 10 9 8 9 10 8 5 3 2 4 6 4 6 9 3 3 2 5 5 5 5 5 4 6 2 5 6 4 5 4 3 4 4 4 6 6 2 4 5 8 6 7 13 10 12 14 14 12 9 6 2 6 9 8 8 9 6 3 4 7 7 3 5 4 2 1 2 4 8 8 11 15 18 21 23 25 26 24 25 25 24
8 10 11 9 6 5 6 8 9 8 11 11 6 6 5 3 5 7 4 7 7 2 5 5 0 4 5 2 3 3 7 5 4 3 4 5 3 2 4 2 1 7 7 3 5 6 5 2 8 10 8 9 11 11 13 14 12 6 3 4 7 9 10 7 4 4 7 7 2 6 7 6 4 3 5 8 9 11 13 15 19 21 24 25 23 25 30 29
10 12 15 11 4 4 6 7 9 9 11 10 4 3 5 4 6 7 6 9 7 3 6 6 1 2 4 3 2 3 5 3 4 3 3 4 4 3 6 1 4 6 8 5 4 4 5 4 6 9 8 8 8 7 9 13 17 13 8 7 4 7 8 5 4 5 5 5 3 3 6 5 3 3 6 8 10 12 11 12 16 18 22 24 20 23 29 31
12 13 14 9 5 3 6 7 9 10 10 8 4 0 2 5 5 6 7 9 6 3 6 6 1 0 3 4 1 2 2 2 2 3 2 2 4 2 8 3 4 5 5 7 7 4 5 6 3 6 7 7 8 6 7 9 13 15 11 9 7 4 5 5 6 5 5 4 3 2 4 3 2 4 8 8 8 10 11 12 13 16 21 23 21 22 24 28
12 13 9 9 6 4 7 9 11 11 8 5 5 3 4 6 5 6 6 8 6 3 5 7 4 2 3 3 0 2 2 1 3 1 3 2 2 3 5 4 3 2 1 5 8 7 5 4 3 4 6 7 6 7 8 8 9 10 9 7 6 3 3 4 5 7 6 5 3 4 3 4 3 5 6 7 5 5 6 8 11 16 21 23 24 26 24 24
12 13 4 6 4 3 7 11 9 9 6 2 1 5 6 6 8 6 2 4 5 2 2 7 4 4 6 1 1 3 1 1 2 1 2 2 2 2 1 5 6 6 4 5 8 5 3 3 3 3 4 6 6 8 10 11 9 9 9 8 6 5 4 5 5 6 6 5 5 5 2 4 4 3 5 8 4 3 5 5 9 16 22 23 24 28 28 25
12 9 2 2 2 3 9 10 5 7 4 4 3 4 3 5 7 7 3 3 6 2 2 5 2 5 8 4 3 3 1 1 0 1 2 2 2 4 3 5 8 8 7 5 3 7 8 4 5 6 5 6 7 8 11 12 12 10 9 9 8 7 6 6 5 5 6 5 6 6 2 5 5 2 4 7 2 1 5 7 12 15 19 21 22 24 27 29
14 11 2 2 3 6 10 8 3 5 1 6 4 2 2 4 4 7 5 4 5 3 3 3 1 3 5 3 5 4 3 1 0 3 2 3 1 6 3 4 6 8 8 4 6 12 10 5 4 8 8 8 11 9 10 11 13 10 9 9 8 9 10 8 5 4 5 6 7 5 2 3 2 2 4 12 6 6 7 11 13 13 15 18 20 22 25 26
17 17 4 3 4 7 8 6 5 3 4 2 5 2 1 3 5 7 6 5 5 4 4 3 3 2 2 1 3 5 4 2 1 2 2 2 3 4 2 5 6 7 5 7 7 9 6 3 3 5 6 5 8 8 9 9 9 7 6 6 7 10 12 11 7 6 5 6 9 6 2 3 1 1 6 15 12 8 10 8 7 8 12 14 16 21 24 24
16 15 5 4 5 8 10 9 9 5 4 2 4 1 3 3 4 4 5 3 5 5 4 3 1 3 4 3 3 2 1 4 1 1 2 1 3 1 2 3 6 7 10 11 7 7 5 3 2 4 6 5 4 3 1 2 3 5 6 9 12 13 12 10 7 6 4 5 8 4 4 6 5 6 7 13 16 8 8 5 1 0 6 12 14 16 19 22
11 8 5 5 6 10 11 6 8 6 4 1 2 2 4 1 7 1 5 2 2 4 4 2 1 3 3 2 4 2 3 2 2 1 3 2 2 1 1 4 6 5 9 8 6 5 5 4 4 7 8 6 5 7 8 7 5 6 8 13 15 11 10 9 7 6 5 4 4 2 9 9 7 6 5 10 15 10 4 7 5 4 1 5 11 13 14 20
8 8 7 2 3 7 5 4 6 3 3 1 1 0 5 4 3 2 1 3 2 3 4 2 2 3 2 3 5 3 2 4 2 2 3 4 3 3 2 9 6 3 1 5 5 4 4 4 6 9 9 10 9 8 10 10 9 11 10 12 14 11 11 13 8 5 6 3 1 7 13 10 7 6 5 6 10 12 5 8 7 1 3 3 5 11 14 20
8 9 9 3 3 5 4 1 3 1 2 1 1 1 5 5 1 2 1 2 1 1 3 3 4 1 1 1 2 3 5 5 2 2 2 4 4 3 6 8 3 4 4 9 7 2 3 5 7 9 10 12 12 10 10 10 11 14 10 6 8 11 14 13 8 7 9 6 2 6 15 12 7 8 6 4 5 12 16 15 11 6 7 8 9 13 14 14
9 12 13 7 5 7 6 2 3 5 1 2 2 4 5 3 1 0 0 2 2 2 3 4 4 2 2 0 2 2 4 1 1 4 2 3 5 3 3 4 3 4 6 5 1 5 4 5 7 10 10 10 12 14 15 13 11 12 9 6 8 10 13 10 7 9 12 11 9 4 17 14 8 7 7 4 3 7 12 16 15 12 10 12 15 16 12 7
8 10 14 14 10 9 7 2 3 5 1 4 1 4 3 3 2 3 1 3 4 2 1 3 2 3 5 3 4 1 2 1 3 4 2 5 3 4 4 4 3 6 8 6 4 6 3 3 4 8 8 8 13 14 11 11 12 10 6 6 9 11 13 11 7 7 8 9 10 4 12 12 7 6 6 6 5 6 6 7 11 13 13 14 17 16 13 10
8 6 9 12 9 5 6 5 4 5 3 3 3 1 1 2 2 3 1 2 6 4 4 5 3 1 2 2 2 1 1 1 5 3 1 4 2 1 3 2 1 6 7 4 2 3 4 4 4 6 6 6 10 9 8 8 8 7 3 4 7 8 10 11 12 14 15 12 11 7 3 6 5 5 5 3 3 6 6 4 4 4 5 9 15 17 15 13
10 5 6 9 7 4 5 6 5 5 3 1 4 1 3 0 2 3 3 0 2 2 3 6 5 3 3 0 2 3 5 4 5 4 3 6 4 3 4 3 4 5 5 4 2 2 4 4 4 5 4 5 7 9 11 11 5 0 2 5 7 6 7 11 14 17 19 15 9 5 3 1 2 2 3 2 3 8 11 11 10 10 11 11 12 14 15 11
Wind_Direction
350 352 356 1 4 7 6 3 359 354 345 336 327 318 315 315 318 321 326 330 333 331 328 329 326 321 321 317 312 310 307 299 292 282 270 255 238 239 244 252 257 253 239 227 206 210 231 231 239 241 245 246 245 262 268 269 272 31 70 37 270 167 159 183 174 186 149 143 155 162 173 148 127 143 143 139 129 123 124 129 134 130 125 125 128 132 134 134
347 349 353 358 3 6 6 3 1 358 352 344 334 322 313 310 312 314 319 326 332 334 332 328 325 322 323 320 317 313 305 297 287 275 267 254 246 246 245 242 241 239 227 218 203 213 229 226 233 232 240 247 252 264 263 302 329 45 92 182 260 126 158 187 168 189 158 144 154 163 174 150 137 147 147 140 133 138 138 129 126 119 119 125 130 135 135 136
346 346 350 355 360 2 1 2 1 359 357 350 341 330 317 308 305 308 311 319 330 335 332 329 325 324 325 324 319 311 306 303 289 278 274 255 249 246 237 235 229 227 227 216 204 219 233 240 249 236 241 248 252 258 236 328 3 73 236 230 164 113 144 163 150 184 151 144 154 159 167 153 143 146 145 143 140 147 136 123 123 123 127 132 134 137 137 139
346 346 351 355 358 357 358 1 1 1 360 354 348 339 327 314 302 304 307 312 324 332 334 329 325 326 328 325 317 312 312 304 283 258 269 253 253 247 233 227 213 220 217 195 207 235 242 253 267 256 250 252 269 281 227 220 350 237 266 314 143 135 132 141 149 160 139 146 155 151 156 148 148 149 145 145 141 141 130 129 132 133 135 136 137 140 141 141
347 349 353 356 356 355 355 357 0 2 359 354 349 342 335 322 303 301 302 307 320 332 335 325 325 329 327 324 314 313 312 308 116 158 267 275 277 256 233 219 198 206 195 183 215 247 246 251 264 259 252 256 311 310 264 173 255 265 27 78 155 154 126 141 153 141 140 151 150 147 148 143 149 147 143 146 139 137 135 135 136 135 137 138 141 142 143 142
348 351 353 356 355 354 353 354 357 358 356 351 345 340 337 328 311 301 301 308 319 333 336 326 326 325 327 321 304 305 286 299 62 247 279 291 280 257 224 205 184 189 183 190 230 244 243 245 256 253 248 253 119 263 246 169 151 309 64 93 150 170 127 131 137 134 145 151 148 150 146 143 147 140 141 140 129 136 134 134 136 136 138 139 141 144 145 144
350 350 352 354 351 352 352 352 353 354 352 347 341 335 332 331 318 300 304 311 320 337 335 325 323 318 323 305 296 288 256 271 305 249 303 318 277 237 208 191 181 184 181 203 234 237 237 238 249 247 247 263 155 254 237 169 103 21 77 100 141 205 114 105 129 137 131 150 161 152 143 143 142 139 143 137 130 139 136 133 135 136 139 141 142 145 145 144
350 347 349 350 349 350 350 351 352 351 350 346 342 334 331 336 332 321 314 316 326 335 331 323 320 312 311 296 296 281 254 254 268 262 306 326 286 217 197 185 183 183 184 210 230 232 237 239 247 248 265 307 273 259 211 158 104 80 102 116 159 169 105 108 133 132 107 153 166 143 136 137 133 136 138 136 138 143 140 135 136 139 141 143 143 144 145 145
349 346 345 345 346 348 348 350 350 350 352 350 348 341 339 350 11 29 347 336 335 334 334 322 313 304 296 299 298 282 255 116 316 284 292 312 288 214 194 186 184 184 191 218 230 234 238 238 244 248 296 328 266 260 216 169 91 100 125 128 138 111 105 120 127 120 96 102 147 136 127 120 121 128 130 139 146 144 141 137 139 141 142 144 144 144 145 145
350 344 342 342 345 347 347 348 350 353 354 355 357 356 7 27 43 48 26 11 344 331 333 320 313 301 292 304 294 279 212 74 334 302 292 295 271 214 190 182 190 193 204 226 229 232 235 237 254 273 285 261 262 269 264 137 101 108 120 111 105 99 106 124 111 110 109 75 117 137 121 99 105 129 134 146 149 145 142 139 142 143 143 145 142 143 146 146
346 340 339 341 343 346 347 349 351 355 358 3 8 15 30 43 55 60 50 26 344 333 330 324 315 295 294 291 273 273 33 312 307 304 289 285 242 210 181 178 200 205 215 231 230 231 235 242 269 291 272 258 264 259 76 93 107 108 104 99 96 100 89 86 85 81 107 79 97 126 114 89 94 141 142 152 152 146 145 143 144 145 143 144 142 144 147 146
338 337 337 339 343 345 347 350 354 357 5 15 23 32 42 50 59 60 56 33 359 349 336 331 315 299 306 282 260 258 332 303 246 229 255 221 202 198 177 187 208 214 223 232 230 231 238 248 271 282 273 278 281 269 95 97 108 111 110 108 104 104 77 57 67 31 65 111 129 126 118 105 122 140 145 154 151 146 147 146 146 146 144 143 143 145 148 147
334 332 335 341 344 344 347 354 357 360 11 22 28 37 42 49 58 58 56 41 24 3 350 339 314 310 301 283 262 243 267 271 224 204 199 188 189 190 194 208 215 220 231 239 239 233 238 250 263 278 279 256 274 355 104 109 114 127 122 114 110 106 81 42 204 44 71 125 147 143 135 125 129 146 155 157 151 151 153 151 148 146 146 145 145 148 148 148
335 333 338 344 345 346 350 356 358 2 14 19 22 29 34 42 51 54 48 31 23 1 353 337 312 316 280 274 282 257 237 214 215 200 188 191 192 197 206 214 217 222 234 245 250 239 239 253 258 272 279 255 274 334 126 127 126 148 128 118 134 115 131 209 207 152 120 135 108 8 134 146 146 157 165 161 156 160 159 155 152 149 148 147 148 151 149 150
340 337 342 347 348 348 353 357 359 5 12 12 10 14 20 27 36 42 28 8 3 346 346 343 330 313 268 258 257 284 231 199 205 196 190 195 195 204 205 207 212 223 239 241 247 250 243 247 248 258 269 248 254 283 229 148 130 159 146 147 172 135 149 226 230 187 164 152 164 7 137 151 164 169 169 164 164 169 165 159 156 153 151 150 152 154 150 154
341 341 346 350 348 349 355 359 2 5 3 360 356 356 357 358 359 356 353 343 334 328 324 335 341 315 287 270 226 322 216 199 198 187 191 194 196 200 195 198 206 221 235 227 243 262 238 238 243 251 264 251 232 243 238 183 146 173 183 171 164 139 151 213 228 209 197 163 176 214 120 148 162 169 171 170 169 175 172 163 159 156 154 153 157 157 153 157
345 345 347 350 347 347 356 0 7 2 354 350 348 344 338 328 306 310 320 319 319 314 292 276 309 284 269 268 246 227 208 195 184 182 188 192 198 194 185 194 205 213 220 218 242 253 225 228 239 248 252 254 248 232 241 231 165 156 223 105 154 149 157 169 183 219 203 183 175 120 84 203 161 162 174 177 176 183 179 168 163 160 159 158 161 160 155 160
349 344 348 350 344 343 352 1 6 357 348 346 342 334 327 313 286 280 285 314 315 293 286 239 243 276 249 237 235 207 191 174 172 186 190 194 203 194 188 196 201 202 215 222 229 230 218 214 223 242 232 225 244 233 237 223 119 144 198 118 155 177 176 174 168 203 196 186 177 144 154 209 170 162 175 181 184 191 184 172 167 164 163 162 164 162 157 162
346 344 350 346 337 338 346 355 356 352 348 342 337 330 320 298 257 247 259 305 284 279 318 183 206 284 144 174 176 149 156 165 183 192 191 202 203 192 193 197 199 201 213 215 205 208 207 205 215 232 228 218 221 230 246 191 126 149 179 134 166 215 185 172 171 185 183 182 180 168 179 184 173 170 173 181 187 193 189 179 172 167 166 167 169 164 159 166
343 347 348 340 336 327 333 349 348 351 349 339 336 330 318 306 248 204 196 229 246 277 313 187 212 264 264 154 127 112 143 179 204 202 198 202 190 190 195 196 200 206 217 214 190 195 203 213 218 221 227 231 227 227 254 248 136 129 131 127 159 218 159 126 161 174 170 184 186 174 187 178 172 174 171 178 185 189 192 188 181 172 170 174 174 165 164 169
343 347 346 341 330 318 327 339 341 349 347 338 335 322 315 345 352 333 327 246 228 257 265 254 270 281 295 92 111 181 199 198 209 203 195 192 190 192 188 194 204 202 221 228 202 182 206 225 222 225 228 234 243 238 260 272 173 139 148 134 132 164 121 89 112 145 150 185 189 165 182 183 177 176 172 177 184 190 197 197 189 177 174 180 175 168 166 168
343 348 348 341 325 325 322 322 338 346 343 338 329 309 307 346 347 326 325 283 218 229 264 258 270 260 260 283 287 219 203 197 198 192 188 195 202 198 177 191 216 203 209 228 218 179 206 233 228 229 232 234 243 240 251 263 258 200 175 141 141 133 120 108 104 110 131 189 168 173 182 188 183 173 181 191 187 187 189 208 213 186 176 182 177 170 169 169
344 351 353 343 325 324 316 326 338 332 342 342 322 311 316 346 334 321 320 288 242 113 238 211 224 215 206 241 248 212 216 208 186 181 185 203 213 211 194 195 217 218 209 216 222 206 206 226 228 229 234 233 230 230 247 254 262 260 233 161 159 159 161 143 119 121 145 108 186 201 182 168 174 137 292 265 230 199 172 203 246 217 183 182 181 173 172 174
345 350 354 347 328 321 316 328 330 325 340 324 306 312 331 349 326 331 326 286 254 112 217 182 236 229 188 220 218 212 222 210 188 181 180 205 214 209 214 214 213 222 219 214 224 233 231 219 217 226 233 228 219 231 254 259 258 250 244 228 159 167 182 133 127 141 133 57 323 220 158 150 202 177 223 273 278 301 205 194 247 237 192 184 186 176 177 179
339 343 352 344 332 328 320 324 331 332 317 295 294 316 330 342 321 333 328 284 225 109 151 154 243 257 165 221 200 218 232 215 199 180 178 209 215 197 219 234 225 226 218 213 226 236 243 231 207 215 231 218 200 218 234 242 249 245 248 234 173 168 154 121 135 144 107 40 204 194 188 188 196 191 193 207 227 271 281 212 233 235 201 189 188 180 183 184
330 337 344 339 338 337 330 329 325 320 306 288 322 338 334 336 314 327 317 277 128 115 162 154 224 212 197 214 180 215 245 222 176 159 181 214 222 226 234 223 214 235 232 215 225 236 246 245 208 210 228 201 184 226 230 243 252 248 289 287 190 168 143 136 151 151 122 176 173 188 231 222 176 203 197 177 185 213 245 228 220 221 203 192 190 184 186 185
322 329 337 338 338 336 332 332 318 315 326 8 8 339 340 316 299 322 306 258 110 141 173 132 95 76 199 189 182 210 215 136 148 158 194 211 221 241 245 223 206 232 252 225 212 227 244 245 209 217 234 190 182 232 229 242 253 224 1 334 304 175 151 149 160 161 147 149 154 188 219 264 196 210 194 176 181 199 214 220 212 208 198 191 193 188 187 187
316 323 330 332 330 330 327 327 327 321 335 4 355 334 335 308 299 310 290 318 67 290 190 96 98 277 240 184 212 240 90 141 197 160 188 208 214 225 228 242 235 220 229 227 212 207 232 240 204 207 230 183 195 232 222 231 244 264 0 324 304 225 191 174 172 166 148 150 171 186 192 232 211 180 178 179 184 196 205 211 206 203 198 192 195 193 187 189
311 315 319 326 325 327 323 318 323 328 335 340 334 329 320 303 299 282 263 353 54 237 113 90 154 202 193 178 219 249 163 196 216 147 172 206 219 233 253 281 277 238 221 238 237 205 219 258 214 209 233 208 219 233 231 233 228 347 4 318 286 267 231 201 202 174 146 177 220 187 182 203 187 162 170 180 192 198 197 205 205 202 204 197 196 196 188 188
305 303 309 320 318 323 322 318 338 359 344 316 322 324 306 291 282 272 276 45 80 157 155 162 151 172 179 179 191 211 195 176 155 171 183 205 220 234 264 277 273 250 220 241 248 252 323 232 193 243 254 241 245 243 244 248 239 203 340 263 267 271 259 245 246 207 171 218 235 164 179 219 242 168 173 190 200 192 182 193 201 199 206 200 195 199 192 186
293 294 303 314 316 320 308 305 349 2 315 298 317 315 295 279 256 278 32 31 279 140 172 168 122 168 191 205 198 192 198 146 128 198 192 203 211 209 233 243 255 247 206 229 246 259 261 209 164 253 262 249 250 243 241 247 247 250 246 246 251 231 227 251 240 219 238 253 69 114 150 224 257 184 177 199 199 184 178 184 192 193 197 193 194 205 198 187
282 287 302 312 312 313 300 301 332 326 301 305 319 302 284 272 255 311 64 246 258 79 169 150 139 214 200 210 251 196 191 153 151 201 193 198 200 187 220 220 193 222 215 220 229 224 230 209 142 233 247 247 249 235 228 233 223 235 246 245 255 229 208 240 229 227 257 252 78 114 136 174 265 278 232 211 192 185 182 181 189 193 190 188 195 203 199 190
270 281 302 309 303 304 307 314 313 304 310 316 302 283 278 282 300 338 41 28 13 39 322 184 201 267 202 190 235 186 167 136 163 216 202 196 201 185 212 228 212 217 233 222 218 205 206 209 202 216 224 231 243 242 222 209 182 200 233 227 243 235 207 240 249 264 267 141 110 154 163 180 263 289 267 207 178 185 185 182 187 193 192 191 195 197 197 193
267 285 303 304 304 315 318 316 302 300 314 311 288 276 278 299 6 332 14 52 49 90 347 258 249 291 164 212 234 152 160 150 183 229 207 190 215 196 203 230 229 250 272 237 222 212 208 210 200 204 201 197 218 250 259 248 190 198 218 224 241 252 239 246 233 255 276 148 134 164 184 244 189 342 282 161 161 180 184 182 184 189 195 194 195 197 198 195
261 285 300 302 312 336 333 324 313 305 309 302 288 278 286 336 20 349 14 21 313 152 88 327 249 213 182 173 77 198 258 270 196 218 210 206 222 203 214 214 204 246 258 231 250 229 226 238 192 186 191 178 197 240 265 288 275 200 196 212 234 253 262 270 235 244 274 274 158 162 181 289 322 340 94 140 157 176 177 181 183 188 194 194 194 199 200 195
265 279 289 307 320 332 328 318 307 296 294 292 288 289 306 31 12 355 10 331 321 14 85 248 229 247 236 154 107 211 218 231 235 212 192 223 210 183 239 208 188 266 268 236 315 271 239 252 171 170 191 181 190 222 233 246 271 239 194 209 218 240 258 268 251 242 255 258 206 143 141 176 228 289 175 157 167 179 177 182 186 187 192 194 193 197 199 195
262 271 274 282 290 282 284 286 278 275 282 284 295 320 334 26 13 4 359 319 324 335 308 311 50 309 290 149 86 189 176 176 242 221 187 201 176 208 239 148 186 299 329 349 295 294 285 268 139 157 197 178 179 217 220 225 245 257 241 216 195 221 254 274 269 239 234 249 230 140 154 178 180 170 176 172 172 179 180 180 183 186 190 193 192 195 199 195
255 270 271 263 260 273 268 269 274 280 281 282 288 301 314 8 22 14 348 309 300 298 318 325 303 297 324 357 33 164 158 154 176 180 198 167 112 279 279 117 172 279 324 319 278 293 298 277 161 173 202 169 163 223 226 218 232 246 280 307 261 216 228 243 262 275 258 258 270 157 169 184 168 142 171 182 181 184 185 176 178 184 188 192 190 190 199 198
256 273 267 230 194 272 268 257 270 276 275 287 309 219 322 2 35 22 335 304 303 338 337 333 342 156 5 9 352 178 86 30 179 160 191 153 108 247 285 298 185 229 278 262 270 295 286 282 217 193 219 197 172 212 229 209 222 242 263 285 285 253 230 219 214 229 254 263 272 234 190 145 110 168 177 182 186 182 181 181 182 184 187 191 188 185 194 200
266 275 254 186 182 267 269 257 262 265 261 283 321 8 0 345 20 29 344 312 313 339 334 331 340 330 352 61 269 279 62 121 250 152 161 187 125 201 266 301 245 246 275 241 269 290 272 266 236 194 226 234 199 199 226 214 200 221 238 245 254 261 289 290 235 211 226 240 259 259 216 119 126 194 165 144 160 162 161 178 179 180 188 191 188 188 190 197
279 277 236 158 204 252 253 253 253 263 258 208 326 19 19 330 331 349 331 312 313 236 297 325 327 313 319 58 93 321 3 168 268 48 133 191 325 295 334 351 315 316 339 244 244 275 278 259 269 240 214 231 217 191 216 236 217 204 217 228 243 245 242 261 251 238 238 225 231 255 231 110 121 180 137 130 156 151 133 181 197 187 190 190 187 188 189 192
278 272 189 154 235 202 243 257 256 266 280 63 27 0 3 284 308 331 312 317 324 293 310 327 333 325 329 5 7 322 40 37 269 110 123 190 354 26 52 344 308 295 297 265 260 359 347 302 288 284 273 288 275 203 194 236 246 231 220 214 224 241 243 247 244 248 262 255 247 246 205 100 102 139 122 110 112 201 149 199 226 202 186 185 185 186 186 190
275 272 234 138 218 224 250 268 266 248 334 40 332 289 314 289 321 351 355 8 340 322 325 328 43 353 349 14 338 341 62 34 162 81 34 218 104 49 29 309 293 265 278 320 11 3 340 278 265 286 292 307 288 236 186 214 240 240 228 215 219 232 239 251 261 255 255 264 271 259 148 84 56 347 79 100 122 244 208 194 210 195 177 179 181 181 182 184
288 291 310 112 200 235 256 283 289 251 108 55 286 210 120 323 339 334 348 25 349 326 344 3 61 24 311 287 332 24 57 286 197 87 331 233 106 61 320 302 296 280 324 28 10 343 325 253 246 288 286 280 266 235 179 189 228 248 245 230 230 234 238 247 265 281 279 287 301 315 83 127 162 134 95 110 135 222 237 198 179 178 176 172 172 175 175 177
295 295 276 167 190 235 259 287 302 319 98 158 293 319 198 165 67 324 309 1 338 332 347 345 334 281 285 304 328 75 147 268 298 40 307 48 100 179 244 296 301 329 21 28 349 314 310 297 286 277 267 251 265 290 219 208 269 280 267 257 246 230 226 242 253 256 264 279 293 313 117 152 163 152 132 116 126 167 241 250 7 341 183 162 161 168 168 176
295 291 251 192 192 233 251 276 295 319 34 172 256 319 274 110 86 6 298 338 351 332 321 306 311 304 316 325 291 207 181 273 13 26 265 235 149 106 35 280 282 355 19 1 326 294 285 295 285 271 274 287 314 322 307 292 286 263 240 252 261 242 218 236 246 246 253 245 244 114 118 144 155 143 130 108 117 135 233 282 328 5 12 144 150 154 159 178
277 289 290 271 221 249 249 218 245 273 48 16 224 282 293 300 115 155 303 4 359 330 329 329 319 315 346 343 315 315 327 325 41 90 273 286 349 38 285 257 242 110 33 269 251 254 277 278 262 254 256 265 275 289 288 279 277 274 250 240 258 262 243 235 225 252 284 272 176 88 95 112 124 119 107 96 115 129 160 264 282 55 116 116 141 161 169 178
268 292 306 293 240 298 335 243 264 301 137 228 344 236 270 285 245 151 80 34 351 4 20 332 288 287 79 16 346 326 314 320 352 3 311 299 314 289 243 250 230 143 214 236 217 210 305 289 280 273 257 246 241 244 254 251 254 266 270 271 278 284 278 259 227 245 270 271 278 88 94 95 103 114 113 102 123 136 154 190 213 186 149 133 154 191 191 171
291 313 332 338 288 307 335 1 337 317 270 67 20 261 266 296 7 116 2 356 348 28 25 317 303 17 13 36 93 324 300 297 289 308 284 258 300 312 265 277 312 315 301 290 44 52 353 291 294 295 283 269 257 244 233 229 239 253 268 315 324 316 311 297 258 253 258 265 288 56 93 90 83 100 112 115 107 115 141 162 171 176 176 153 160 191 205 173
318 327 339 334 302 289 295 263 271 279 210 101 270 260 273 301 355 71 134 316 346 27 20 297 325 29 352 14 90 207 267 174 243 283 244 242 297 341 303 304 318 302 301 312 21 33 341 290 307 295 286 283 276 263 243 235 242 246 265 324 336 333 331 327 319 310 299 288 298 6 87 86 68 75 95 107 111 109 119 145 155 165 176 166 158 165 179 185
336 324 324 315 301 295 288 265 266 271 229 174 185 194 219 250 356 35 146 338 345 349 346 334 345 21 321 2 90 187 128 164 250 273 285 274 294 205 251 280 298 284 295 310 349 340 305 306 313 287 270 268 277 294 329 316 268 230 234 10 12 354 346 357 6 4 358 340 316 317 58 89 74 55 61 77 114 111 87 50 59 81 101 127 136 142 156 175
339 321 311 299 296 307 275 250 248 261 278 29 80 44 279 192 57 299 259 336 282 270 344 331 322 312 267 193 58 350 354 338 305 320 320 303 305 249 235 251 256 269 305 319 285 279 296 304 304 293 277 277 301 332 344 336 329 133 42 23 22 15 24 31 22 14 12 5 345 331 356 72 96 77 91 108 84 67 49 35 37 32 36 67 102 128 143 149
Height
1518 1518 1517 1516 1516 1515 1514 1514 1513 1512 1511 1510 1509 1509 1508 1508 1507 1507 1506 1506 1505 1505 1505 1504 1503 1503 1502 1501 1500 1499 1499 1498 1497 1496 1495 1494 1495 1495 1496 1497 1497 1497 1498 1499 1499 1501 1502 1503 1504 1504 1504 1503 1503 1502 1501 1502 1500 1502 1508 1517 1520 1517 1519 1514 1512 1512 1509 1512 1512 1511 1511 1512 1514 1514 1514 1514 1514 1514 1515 1516 1516 1519 1522 1527 1531 1535 1537 1540
1518 1518 1517 1516 1516 1515 1515 1514 1513 1512 1511 1510 1509 1508 1507 1507 1507 1506 1506 1505 1505 1504 1504 1504 1503 1502 1502 1501 1500 1499 1498 1497 1496 1494 1493 1493 1494 1494 1495 1496 1496 1497 1497 1498 1498 1500 1502 1502 1503 1503 1503 1501 1501 1500 1501 1502 1501 1502 1508 1517 1517 1511 1512 1508 1507 1508 1507 1511 1511 1511 1512 1513 1514 1514 1514 1515 1516 1515 1514 1515 1517 1521 1525 1529 1533 1536 1539 1541
1519 1518 1517 1516 1516 1515 1515 1514 1513 1512 1511 1510 1509 1508 1507 1506 1506 1505 1505 1505 1504 1504 1504 1503 1503 1502 1501 1501 1500 1499 1497 1496 1495 1492 1491 1492 1493 1493 1494 1495 1495 1496 1496 1497 1499 1501 1502 1501 1501 1501 1501 1499 1499 1499 1500 1501 1501 1502 1505 1512 1511 1506 1508 1506 1507 1508 1506 1509 1509 1512 1513 1513 1514 1513 1514 1515 1516 1515 1513 1515 1518 1522 1527 1530 1534 1537 1539 1541
1519 1518 1517 1517 1516 1515 1514 1514 1513 1512 1511 1510 1509 1508 1507 1506 1505 1505 1505 1504 1504 1504 1503 1503 1502 1502 1501 1500 1500 1498 1497 1496 1493 1491 1491 1492 1492 1493 1493 1494 1495 1495 1496 1497 1498 1501 1501 1501 1501 1499 1499 1497 1497 1499 1499 1500 1501 1500 1503 1508 1506 1504 1507 1507 1508 1509 1507 1508 1509 1510 1512 1513 1514 1514 1514 1514 1518 1517 1515 1517 1520 1523 1527 1530 1535 1538 1540 1542
1520 1519 1518 1517 1516 1515 1514 1513 1513 1512 1511 1510 1509 1507 1506 1505 1505 1505 1504 1504 1504 1503 1503 1502 1502 1501 1501 1500 1499 1498 1498 1496 1492 1491 1491 1492 1492 1492 1493 1493 1494 1495 1496 1497 1498 1501 1501 1501 1500 1499 1498 1496 1499 1503 1500 1498 1500 1500 1501 1505 1504 1503 1506 1508 1508 1509 1509 1509 1509 1509 1511 1513 1513 1514 1515 1515 1519 1519 1515 1518 1522 1524 1528 1531 1535 1538 1540 1542
1520 1519 1518 1517 1516 1515 1514 1513 1512 1512 1511 1510 1508 1507 1506 1505 1504 1504 1504 1504 1504 1503 1503 1502 1501 1501 1500 1500 1499 1498 1498 1496 1491 1491 1492 1491 1492 1492 1492 1493 1493 1494 1495 1497 1498 1500 1500 1500 1500 1497 1496 1495 1499 1503 1500 1498 1499 1501 1503 1504 1506 1504 1505 1507 1509 1511 1510 1510 1510 1510 1511 1513 1513 1515 1516 1516 1518 1518 1517 1519 1523 1526 1529 1532 1535 1538 1540 1542
1520 1519 1518 1517 1517 1515 1514 1513 1512 1511 1510 1509 1508 1506 1505 1504 1504 1504 1504 1503 1503 1503 1503 1502 1501 1500 1500 1499 1498 1498 1497 1494 1491 1491 1491 1491 1492 1491 1492 1492 1493 1494 1494 1497 1498 1499 1499 1499 1498 1495 1494 1495 1497 1497 1496 1497 1497 1501 1506 1506 1507 1507 1507 1509 1511 1512 1513 1512 1511 1511 1512 1512 1513 1515 1516 1517 1518 1518 1519 1521 1524 1528 1530 1533 1535 1538 1540 1542
1520 1519 1518 1518 1517 1515 1514 1513 1512 1510 1509 1508 1507 1506 1505 1504 1503 1503 1503 1503 1503 1503 1502 1502 1501 1500 1500 1499 1498 1498 1496 1493 1491 1491 1491 1491 1491 1491 1492 1492 1493 1494 1494 1496 1498 1498 1498 1497 1497 1494 1493 1496 1496 1494 1493 1496 1497 1500 1507 1509 1509 1511 1512 1512 1512 1511 1513 1514 1513 1512 1513 1513 1514 1515 1516 1517 1519 1519 1520 1522 1525 1529 1531 1533 1536 1538 1540 1543
1520 1519 1518 1518 1517 1515 1514 1513 1512 1510 1509 1507 1506 1505 1504 1503 1503 1503 1503 1503 1503 1503 1502 1501 1501 1500 1499 1498 1499 1498 1493 1492 1491 1491 1492 1491 1491 1492 1492 1492 1493 1494 1495 1497 1497 1498 1497 1496 1495 1493 1495 1496 1495 1492 1489 1495 1502 1502 1505 1509 1510 1513 1515 1514 1514 1513 1513 1514 1514 1514 1515 1515 1515 1516 1518 1518 1519 1520 1520 1523 1526 1528 1531 1533 1536 1538 1541 1543
1521 1520 1519 1518 1517 1516 1514 1513 1512 1510 1509 1507 1506 1505 1504 1504 1503 1503 1503 1503 1503 1502 1502 1501 1500 1500 1499 1499 1500 1497 1492 1492 1492 1490 1491 1491 1491 1491 1492 1493 1494 1494 1496 1497 1497 1497 1497 1495 1494 1493 1494 1494 1493 1490 1485 1491 1501 1503 1505 1508 1510 1514 1516 1516 1517 1516 1515 1514 1514 1516 1518 1517 1516 1518 1521 1520 1519 1520 1521 1523 1526 1529 1531 1533 1536 1538 1541 1543
1521 1520 1519 1518 1517 1516 1514 1513 1512 1510 1509 1508 1506 1506 1505 1504 1504 1503 1503 1503 1503 1502 1501 1501 1500 1500 1499 1499 1499 1495 1492 1493 1493 1491 1491 1491 1491 1491 1492 1493 1495 1496 1496 1497 1497 1497 1496 1495 1494 1494 1493 1493 1491 1487 1486 1491 1499 1504 1507 1511 1512 1513 1515 1516 1516 1517 1515 1516 1517 1516 1518 1519 1518 1519 1520 1519 1519 1520 1522 1523 1526 1528 1531 1533 1536 1539 1541 1543
1521 1520 1519 1518 1517 1515 1514 1513 1512 1511 1509 1508 1507 1506 1505 1505 1504 1504 1503 1503 1502 1502 1501 1500 1500 1499 1498 1498 1497 1494 1493 1494 1493 1493 1492 1491 1492 1492 1492 1494 1495 1496 1496 1496 1496 1496 1496 1496 1495 1494 1493 1494 1490 1487 1494 1497 1498 1506 1509 1514 1517 1515 1518 1518 1516 1518 1516 1518 1518 1517 1523 1526 1522 1521 1520 1519 1520 1521 1523 1524 1525 1528 1531 1533 1536 1539 1541 1543
1521 1520 1519 1518 1517 1516 1515 1513 1512 1511 1510 1509 1508 1507 1506 1505 1505 1504 1504 1503 1502 1502 1501 1500 1500 1499 1499 1496 1493 1493 1494 1493 1493 1493 1492 1492 1493 1493 1494 1495 1496 1496 1497 1496 1496 1496 1496 1496 1496 1495 1493 1494 1490 1490 1500 1498 1500 1511 1511 1513 1520 1522 1525 1523 1519 1520 1518 1519 1518 1519 1531 1534 1526 1522 1521 1520 1521 1522 1524 1524 1525 1528 1530 1533 1536 1539 1541 1544
1521 1520 1519 1518 1517 1516 1515 1514 1513 1511 1510 1509 1508 1508 1507 1506 1505 1504 1504 1503 1503 1502 1501 1500 1499 1499 1499 1495 1492 1493 1493 1493 1493 1493 1493 1493 1493 1494 1494 1495 1496 1496 1496 1496 1496 1496 1496 1496 1496 1495 1494 1493 1490 1490 1496 1498 1502 1509 1512 1515 1521 1530 1532 1524 1521 1522 1521 1523 1519 1521 1533 1536 1527 1523 1522 1522 1522 1523 1523 1524 1526 1528 1530 1533 1536 1538 1541 1543
1521 1520 1519 1518 1517 1516 1515 1514 1513 1512 1511 1510 1509 1508 1507 1507 1506 1505 1504 1503 1503 1502 1501 1500 1499 1499 1498 1494 1492 1492 1491 1492 1492 1492 1493 1493 1494 1494 1494 1495 1496 1496 1496 1496 1496 1495 1495 1496 1496 1495 1493 1491 1492 1493 1493 1496 1504 1505 1513 1523 1521 1529 1535 1524 1520 1522 1523 1524 1520 1523 1532 1534 1528 1524 1523 1523 1523 1523 1523 1524 1526 1527 1530 1533 1536 1538 1541 1543
1521 1520 1519 1519 1517 1516 1515 1514 1513 1512 1511 1510 1509 1508 1507 1507 1506 1505 1504 1503 1502 1502 1501 1500 1499 1500 1497 1492 1491 1491 1491 1491 1492 1492 1493 1493 1494 1494 1494 1495 1495 1496 1496 1496 1495 1495 1496 1496 1495 1494 1492 1490 1490 1494 1493 1497 1507 1505 1510 1524 1521 1526 1536 1530 1522 1520 1521 1523 1522 1526 1531 1532 1527 1524 1524 1524 1524 1524 1523 1524 1526 1528 1530 1533 1536 1537 1540 1543
1521 1521 1519 1519 1518 1517 1516 1515 1514 1513 1512 1510 1509 1508 1507 1507 1506 1505 1503 1503 1502 1501 1501 1500 1500 1500 1496 1492 1491 1491 1491 1491 1491 1492 1492 1493 1493 1493 1494 1495 1495 1496 1495 1496 1496 1495 1495 1495 1495 1493 1491 1490 1486 1490 1499 1502 1510 1513 1513 1520 1520 1520 1529 1532 1527 1521 1519 1523 1525 1527 1530 1531 1526 1523 1524 1525 1525 1524 1523 1524 1525 1528 1530 1532 1535 1537 1539 1542
1522 1521 1519 1519 1518 1517 1516 1515 1514 1513 1512 1510 1509 1508 1507 1506 1505 1504 1503 1502 1501 1501 1500 1499 1500 1501 1495 1491 1491 1490 1490 1491 1492 1492 1492 1493 1493 1493 1494 1494 1494 1495 1495 1495 1494 1494 1494 1492 1492 1492 1489 1491 1489 1491 1501 1503 1507 1518 1520 1520 1522 1519 1521 1527 1526 1519 1518 1523 1526 1529 1533 1533 1526 1523 1525 1525 1525 1525 1523 1524 1526 1528 1530 1532 1534 1536 1539 1542
1522 1520 1520 1519 1518 1517 1516 1515 1515 1513 1512 1510 1509 1507 1505 1505 1504 1504 1503 1502 1501 1500 1498 1498 1499 1498 1493 1490 1490 1490 1490 1491 1492 1492 1492 1492 1493 1493 1493 1494 1494 1494 1494 1494 1493 1491 1492 1491 1493 1496 1494 1491 1489 1488 1491 1491 1494 1505 1510 1516 1524 1521 1516 1518 1519 1514 1516 1523 1526 1530 1533 1532 1528 1525 1525 1525 1526 1526 1525 1524 1526 1528 1530 1532 1534 1536 1539 1541
1522 1520 1520 1519 1518 1517 1516 1516 1515 1514 1512 1510 1508 1507 1505 1503 1502 1502 1502 1502 1501 1499 1497 1496 1495 1493 1490 1489 1490 1491 1491 1492 1492 1492 1492 1492 1492 1493 1492 1493 1493 1493 1492 1490 1490 1488 1489 1494 1496 1495 1492 1486 1483 1481 1479 1478 1483 1494 1503 1512 1516 1515 1514 1516 1517 1514 1515 1523 1528 1528 1530 1529 1527 1526 1524 1526 1526 1526 1527 1526 1526 1528 1530 1532 1533 1535 1539 1541
1521 1521 1520 1519 1518 1517 1517 1516 1515 1514 1513 1511 1509 1508 1505 1503 1502 1502 1501 1499 1498 1497 1496 1495 1493 1492 1490 1489 1490 1491 1491 1492 1492 1491 1492 1491 1491 1492 1491 1491 1492 1493 1490 1485 1485 1485 1489 1496 1494 1487 1484 1480 1477 1477 1478 1476 1478 1489 1499 1506 1509 1511 1515 1516 1516 1517 1519 1527 1531 1530 1532 1531 1527 1526 1525 1526 1527 1527 1528 1527 1527 1528 1530 1532 1533 1535 1538 1540
1522 1521 1520 1519 1518 1518 1517 1516 1515 1514 1513 1511 1510 1508 1507 1506 1505 1505 1502 1498 1495 1496 1496 1495 1494 1493 1492 1492 1491 1492 1491 1490 1490 1491 1491 1491 1491 1490 1489 1490 1491 1490 1487 1484 1484 1488 1493 1494 1488 1480 1476 1476 1476 1477 1481 1480 1478 1484 1491 1499 1507 1509 1513 1517 1518 1520 1523 1531 1535 1534 1537 1535 1529 1527 1526 1526 1527 1527 1528 1528 1528 1529 1530 1531 1532 1535 1537 1540
1522 1521 1520 1520 1518 1518 1517 1515 1515 1513 1512 1511 1509 1508 1508 1507 1507 1506 1504 1499 1494 1494 1494 1494 1493 1492 1492 1492 1491 1492 1490 1487 1488 1489 1490 1491 1489 1488 1488 1488 1489 1487 1485 1485 1486 1491 1496 1490 1480 1475 1473 1475 1478 1479 1480 1480 1481 1484 1487 1495 1504 1506 1510 1518 1522 1523 1523 1529 1534 1535 1538 1538 1533 1530 1528 1527 1527 1528 1529 1531 1532 1531 1530 1531 1532 1534 1537 1539
1522 1521 1520 1519 1518 1518 1516 1515 1514 1512 1511 1510 1509 1510 1509 1508 1507 1506 1504 1499 1492 1491 1491 1492 1491 1489 1489 1489 1490 1490 1488 1486 1486 1487 1490 1490 1488 1487 1487 1484 1486 1487 1484 1483 1484 1487 1487 1479 1473 1473 1473 1474 1480 1483 1483 1486 1489 1486 1482 1487 1497 1500 1501 1508 1518 1522 1522 1526 1530 1536 1544 1543 1537 1535 1533 1529 1528 1528 1529 1531 1533 1531 1530 1532 1532 1534 1537 1538
1522 1521 1520 1519 1519 1517 1516 1515 1513 1511 1510 1509 1509 1510 1509 1509 1508 1506 1506 1500 1492 1491 1491 1492 1491 1488 1488 1489 1490 1489 1486 1485 1484 1485 1488 1489 1487 1487 1485 1483 1485 1486 1483 1481 1482 1484 1481 1471 1469 1474 1474 1473 1482 1487 1486 1488 1492 1487 1477 1474 1481 1490 1494 1503 1514 1519 1529 1535 1529 1536 1553 1550 1537 1535 1534 1531 1530 1529 1529 1531 1531 1530 1529 1531 1532 1534 1537 1538
1522 1521 1520 1520 1519 1517 1516 1514 1512 1512 1510 1510 1510 1510 1510 1510 1508 1507 1506 1501 1495 1492 1491 1491 1491 1489 1488 1488 1489 1489 1488 1484 1482 1485 1488 1488 1487 1485 1485 1483 1482 1484 1479 1476 1479 1481 1476 1467 1466 1473 1474 1475 1484 1489 1485 1484 1491 1490 1476 1464 1468 1479 1491 1504 1509 1514 1531 1537 1528 1532 1549 1551 1542 1536 1532 1531 1532 1531 1531 1531 1530 1530 1530 1530 1531 1533 1535 1537
1522 1521 1520 1520 1518 1517 1516 1514 1513 1512 1510 1511 1511 1511 1511 1509 1508 1508 1508 1508 1502 1492 1488 1489 1490 1489 1488 1487 1487 1488 1491 1488 1483 1486 1487 1487 1487 1485 1486 1483 1481 1482 1474 1474 1485 1482 1474 1470 1470 1473 1474 1478 1488 1491 1483 1480 1488 1488 1474 1467 1470 1475 1486 1498 1501 1507 1518 1523 1526 1527 1534 1546 1548 1538 1530 1529 1532 1533 1532 1531 1529 1528 1529 1529 1531 1532 1534 1536
1522 1521 1520 1520 1518 1517 1516 1515 1514 1512 1512 1512 1511 1512 1511 1509 1509 1508 1512 1520 1507 1488 1486 1488 1488 1489 1487 1488 1487 1484 1487 1488 1487 1488 1486 1487 1487 1483 1485 1481 1478 1479 1471 1477 1491 1481 1470 1472 1472 1473 1476 1481 1486 1485 1478 1477 1484 1480 1470 1469 1473 1475 1479 1486 1492 1502 1508 1517 1529 1526 1525 1545 1548 1533 1529 1531 1533 1535 1533 1530 1528 1527 1528 1529 1530 1531 1533 1535
1522 1521 1520 1520 1518 1517 1516 1515 1514 1512 1513 1513 1512 1512 1510 1510 1510 1506 1514 1520 1501 1486 1488 1488 1488 1489 1486 1488 1487 1483 1484 1485 1486 1487 1485 1487 1486 1483 1484 1480 1476 1476 1471 1475 1482 1475 1467 1468 1468 1471 1479 1482 1480 1476 1472 1475 1478 1473 1470 1472 1475 1475 1474 1478 1484 1495 1506 1518 1525 1518 1518 1538 1542 1530 1531 1535 1533 1531 1530 1528 1526 1525 1527 1528 1529 1530 1532 1534
1522 1521 1521 1520 1518 1517 1515 1514 1514 1513 1513 1513 1512 1511 1510 1510 1510 1512 1519 1512 1493 1487 1489 1487 1488 1487 1485 1487 1486 1483 1481 1482 1484 1485 1485 1486 1485 1484 1483 1480 1476 1475 1474 1474 1474 1470 1467 1468 1470 1474 1478 1477 1475 1473 1470 1470 1469 1469 1474 1479 1482 1481 1478 1481 1481 1487 1508 1519 1515 1510 1511 1525 1536 1528 1524 1526 1522 1520 1523 1525 1524 1523 1525 1527 1528 1529 1530 1533
1522 1521 1521 1520 1518 1517 1515 1514 1514 1514 1514 1513 1511 1511 1510 1508 1509 1516 1516 1499 1488 1489 1486 1485 1487 1485 1484 1486 1484 1483 1481 1481 1482 1484 1486 1485 1484 1485 1484 1482 1480 1478 1481 1482 1478 1474 1471 1472 1474 1476 1476 1474 1475 1475 1471 1467 1466 1472 1480 1484 1492 1491 1488 1493 1489 1492 1515 1521 1510 1509 1511 1523 1534 1525 1514 1513 1510 1510 1517 1520 1520 1521 1523 1524 1526 1528 1529 1532
1522 1522 1520 1520 1518 1517 1515 1514 1514 1514 1513 1512 1512 1510 1510 1512 1512 1509 1500 1490 1491 1491 1484 1484 1486 1482 1483 1484 1482 1481 1480 1482 1481 1481 1484 1484 1484 1485 1485 1483 1482 1487 1492 1489 1483 1479 1476 1473 1474 1478 1477 1474 1478 1481 1478 1473 1472 1480 1486 1491 1502 1503 1504 1511 1508 1507 1518 1516 1510 1511 1514 1525 1529 1515 1506 1507 1506 1507 1511 1515 1518 1519 1521 1523 1525 1527 1528 1530
1522 1521 1520 1519 1518 1516 1515 1514 1513 1513 1511 1511 1513 1508 1508 1518 1515 1497 1486 1489 1493 1488 1482 1484 1483 1479 1480 1483 1483 1479 1480 1484 1482 1481 1480 1480 1484 1484 1482 1477 1474 1483 1490 1486 1484 1485 1483 1478 1476 1481 1480 1475 1478 1483 1485 1480 1479 1487 1492 1497 1505 1508 1519 1530 1524 1520 1520 1514 1512 1510 1514 1529 1527 1511 1501 1500 1502 1505 1507 1512 1516 1518 1520 1522 1523 1526 1527 1528
1522 1521 1520 1519 1517 1516 1514 1514 1513 1512 1511 1511 1510 1508 1512 1518 1508 1490 1486 1490 1487 1483 1482 1483 1482 1481 1481 1483 1481 1477 1481 1485 1481 1481 1480 1480 1485 1485 1482 1477 1473 1477 1482 1482 1482 1482 1489 1489 1478 1478 1479 1475 1477 1478 1476 1472 1474 1482 1483 1489 1497 1497 1509 1522 1524 1527 1523 1516 1518 1515 1518 1527 1524 1511 1499 1494 1499 1503 1506 1510 1514 1518 1521 1522 1523 1524 1526 1527
1522 1521 1520 1518 1517 1515 1513 1513 1512 1511 1512 1511 1508 1510 1514 1511 1499 1492 1492 1490 1484 1482 1483 1483 1483 1485 1483 1481 1480 1477 1482 1485 1480 1480 1483 1483 1485 1484 1482 1478 1476 1477 1479 1484 1483 1475 1483 1484 1468 1467 1469 1469 1477 1474 1468 1473 1479 1476 1472 1485 1494 1487 1489 1499 1505 1510 1509 1513 1520 1521 1523 1520 1511 1505 1497 1495 1499 1500 1505 1509 1511 1517 1519 1521 1523 1523 1523 1525
1522 1521 1519 1518 1516 1515 1514 1514 1512 1512 1512 1510 1510 1508 1503 1499 1496 1495 1493 1490 1485 1483 1485 1485 1484 1486 1484 1479 1482 1481 1481 1483 1480 1480 1484 1484 1483 1483 1482 1477 1476 1477 1476 1483 1488 1481 1483 1478 1461 1464 1468 1465 1473 1473 1468 1478 1483 1475 1475 1485 1483 1474 1478 1490 1498 1497 1500 1514 1515 1514 1522 1518 1510 1508 1499 1497 1502 1500 1503 1508 1509 1514 1516 1518 1521 1521 1522 1523
1522 1521 1519 1517 1515 1515 1516 1515 1513 1514 1512 1510 1511 1506 1495 1493 1494 1492 1491 1490 1487 1484 1488 1491 1487 1487 1486 1481 1482 1482 1480 1483 1482 1482 1486 1487 1487 1486 1482 1479 1479 1478 1475 1481 1487 1481 1482 1481 1466 1467 1474 1466 1467 1472 1469 1471 1475 1478 1481 1476 1470 1473 1476 1484 1498 1501 1505 1515 1508 1506 1522 1521 1516 1518 1505 1500 1505 1503 1502 1505 1507 1511 1514 1516 1518 1519 1521 1522
1521 1520 1518 1516 1516 1516 1515 1514 1513 1513 1511 1508 1509 1503 1495 1494 1493 1492 1492 1490 1487 1486 1490 1493 1488 1486 1487 1486 1485 1482 1481 1485 1485 1485 1487 1489 1492 1489 1483 1482 1483 1481 1477 1482 1486 1478 1479 1487 1475 1466 1472 1468 1465 1474 1478 1472 1469 1473 1474 1466 1469 1486 1490 1489 1501 1509 1512 1516 1511 1510 1517 1515 1512 1513 1508 1506 1507 1505 1504 1504 1505 1508 1510 1514 1517 1518 1520 1522
1520 1520 1516 1514 1515 1515 1513 1514 1513 1511 1510 1508 1505 1500 1495 1493 1492 1493 1494 1490 1487 1489 1491 1490 1486 1484 1486 1488 1488 1483 1482 1487 1487 1487 1490 1492 1495 1492 1485 1484 1485 1483 1480 1481 1485 1479 1477 1488 1485 1469 1465 1467 1469 1478 1485 1481 1473 1470 1471 1469 1470 1478 1484 1486 1491 1499 1507 1515 1517 1516 1517 1517 1511 1504 1502 1505 1504 1503 1504 1503 1504 1507 1509 1512 1514 1516 1520 1522
1521 1518 1513 1511 1513 1513 1512 1512 1511 1509 1509 1506 1502 1498 1496 1495 1493 1493 1495 1492 1489 1491 1493 1489 1487 1489 1488 1487 1488 1485 1484 1488 1487 1489 1492 1492 1494 1492 1485 1484 1484 1483 1481 1481 1484 1482 1479 1486 1490 1476 1467 1472 1477 1478 1480 1479 1477 1478 1481 1482 1478 1475 1477 1481 1480 1480 1489 1504 1513 1513 1516 1516 1506 1496 1497 1500 1500 1500 1501 1501 1503 1505 1507 1510 1512 1514 1518 1520
1521 1517 1511 1511 1511 1511 1512 1511 1508 1504 1501 1499 1499 1499 1499 1499 1495 1493 1494 1493 1490 1491 1493 1490 1489 1491 1489 1487 1490 1487 1485 1488 1488 1491 1494 1493 1494 1493 1487 1486 1486 1484 1484 1485 1485 1484 1483 1486 1489 1484 1477 1478 1475 1468 1468 1469 1469 1474 1479 1480 1481 1479 1482 1493 1493 1479 1475 1487 1496 1500 1512 1514 1499 1492 1494 1495 1495 1496 1497 1500 1502 1503 1505 1507 1509 1512 1515 1518
1520 1515 1510 1510 1510 1510 1511 1507 1502 1498 1495 1497 1501 1502 1502 1502 1498 1494 1493 1492 1490 1490 1491 1490 1490 1492 1490 1489 1490 1488 1489 1492 1493 1494 1497 1495 1494 1494 1492 1490 1489 1487 1487 1487 1483 1481 1483 1486 1491 1489 1481 1476 1468 1458 1461 1464 1461 1464 1469 1471 1475 1477 1480 1492 1498 1487 1477 1479 1478 1480 1503 1514 1498 1489 1493 1493 1493 1495 1497 1501 1502 1501 1502 1504 1507 1510 1513 1516
1518 1514 1509 1509 1509 1510 1510 1505 1499 1496 1496 1499 1501 1501 1502 1501 1498 1496 1495 1494 1493 1492 1492 1492 1492 1494 1493 1492 1492 1491 1492 1496 1496 1496 1499 1497 1493 1494 1495 1493 1491 1488 1487 1489 1488 1486 1486 1489 1495 1495 1484 1474 1465 1456 1458 1462 1463 1467 1467 1464 1469 1474 1475 1477 1480 1480 1481 1484 1478 1479 1504 1518 1503 1493 1496 1499 1501 1500 1501 1505 1504 1501 1501 1502 1506 1508 1510 1514
1517 1512 1508 1508 1509 1509 1508 1505 1499 1495 1497 1500 1500 1499 1502 1502 1501 1500 1498 1498 1497 1494 1494 1494 1495 1497 1495 1491 1493 1494 1496 1500 1499 1497 1498 1498 1496 1496 1496 1494 1492 1489 1489 1494 1496 1495 1495 1494 1498 1505 1503 1494 1482 1471 1468 1469 1469 1471 1468 1465 1467 1470 1471 1472 1472 1476 1484 1486 1480 1489 1514 1520 1504 1496 1500 1506 1510 1507 1505 1508 1507 1503 1503 1504 1506 1507 1510 1514
1517 1512 1507 1506 1509 1509 1506 1503 1498 1495 1496 1501 1501 1500 1501 1501 1503 1503 1500 1500 1499 1497 1497 1498 1497 1497 1493 1491 1494 1495 1496 1499 1500 1498 1498 1498 1498 1496 1495 1495 1495 1492 1493 1497 1497 1496 1499 1497 1499 1510 1515 1512 1506 1495 1487 1483 1479 1475 1472 1470 1469 1466 1470 1476 1479 1486 1494 1489 1482 1494 1513 1513 1501 1497 1498 1502 1510 1510 1506 1508 1509 1507 1506 1507 1508 1509 1511 1512
1518 1513 1506 1503 1505 1505 1502 1500 1499 1497 1497 1501 1504 1503 1501 1500 1502 1504 1502 1501 1500 1499 1499 1498 1497 1497 1495 1496 1498 1497 1496 1497 1499 1501 1501 1500 1498 1496 1496 1496 1495 1494 1497 1498 1496 1496 1499 1499 1499 1505 1508 1507 1506 1500 1489 1485 1485 1482 1478 1475 1470 1465 1467 1474 1481 1488 1488 1485 1487 1493 1500 1505 1506 1504 1499 1499 1507 1511 1507 1505 1509 1511 1511 1509 1509 1510 1511 1512
1518 1513 1506 1503 1503 1502 1499 1498 1498 1498 1499 1502 1505 1505 1503 1501 1501 1503 1503 1502 1502 1501 1500 1499 1499 1500 1501 1502 1502 1502 1500 1499 1500 1503 1503 1500 1498 1498 1498 1496 1494 1496 1498 1497 1496 1496 1501 1502 1499 1498 1500 1498 1497 1493 1486 1484 1487 1484 1478 1475 1471 1468 1469 1473 1479 1482 1479 1485 1497 1495 1492 1502 1509 1505 1502 1501 1506 1514 1514 1509 1508 1512 1515 1514 1511 1509 1510 1512
1518 1512 1505 1505 1505 1502 1501 1499 1497 1498 1500 1502 1504 1505 1505 1503 1502 1503 1503 1502 1502 1501 1503 1505 1501 1500 1502 1504 1507 1510 1508 1506 1506 1506 1505 1505 1502 1501 1499 1494 1493 1496 1495 1494 1493 1495 1502 1505 1498 1494 1495 1491 1488 1489 1486 1486 1487 1483 1478 1478 1478 1477 1474 1472 1473 1476 1478 1485 1493 1490 1491 1500 1504 1502 1503 1502 1502 1510 1516 1515 1510 1509 1514 1517 1513 1509 1509 1514
1518 1514 1509 1508 1507 1504 1503 1503 1502 1501 1501 1503 1506 1506 1504 1504 1503 1504 1503 1504 1504 1502 1505 1509 1504 1500 1501 1501 1507 1514 1513 1513 1516 1512 1507 1508 1506 1504 1503 1499 1497 1496 1494 1493 1493 1497 1504 1505 1499 1497 1496 1490 1486 1485 1481 1481 1483 1481 1480 1481 1482 1482 1480 1475 1475 1476 1477 1479 1481 1485 1494 1500 1500 1500 1501 1500 1501 1504 1509 1513 1513 1511 1511 1513 1513 1511 1511 1515
1520 1519 1515 1513 1510 1506 1505 1504 1505 1505 1504 1506 1510 1507 1504 1505 1505 1504 1504 1506 1508 1505 1505 1507 1505 1503 1504 1502 1507 1513 1511 1512 1517 1512 1507 1508 1508 1507 1508 1505 1502 1500 1498 1496 1497 1500 1505 1505 1500 1499 1501 1497 1489 1482 1478 1480 1482 1484 1484 1485 1487 1489 1487 1483 1482 1482 1484 1486 1484 1488 1500 1505 1502 1500 1500 1501 1503 1504 1505 1507 1510 1511 1511 1512 1514 1516 1516 1518
1523 1523 1521 1519 1515 1509 1507 1505 1505 1506 1504 1504 1506 1506 1505 1506 1506 1506 1507 1507 1509 1508 1506 1506 1505 1504 1505 1505 1508 1510 1506 1506 1509 1506 1504 1505 1506 1507 1507 1505 1504 1505 1502 1500 1502 1503 1504 1505 1501 1501 1507 1504 1491 1485 1485 1483 1482 1486 1490 1493 1496 1498 1497 1496 1496 1496 1499 1499 1495 1496 1506 1510 1506 1502 1504 1505 1503 1503 1505 1506 1508 1511 1513 1513 1515 1518 1520 1522
1523 1523 1523 1522 1518 1512 1510 1507 1505 1506 1505 1502 1504 1507 1507 1506 1506 1508 1510 1508 1508 1508 1508 1507 1506 1506 1507 1508 1509 1508 1507 1506 1505 1504 1504 1504 1502 1503 1504 1502 1502 1504 1504 1504 1505 1504 1504 1507 1506 1506 1512 1508 1496 1494 1493 1490 1497 1505 1501 1497 1499 1499 1500 1503 1505 1507 1508 1507 1509 1515 1518 1513 1505 1504 1507 1509 1506 1505 1508 1511 1513 1515 1515 1515 1517 1518 1519 1521